Weather History for KGSH - February, 2014

Change the Weather History Date:

Friday, February 14, 2014

  Actual Average (KASW) Record (KASW)
Temperature  
Mean Temperature 26 °F -  
Max Temperature 32 °F 34 °F - (-1)
Min Temperature 19 °F 18 °F - (-1)
Degree Days  
Heating Degree Days 40    
Moisture  
Dew Point 16 °F    
Average Humidity 77    
Maximum Humidity 85    
Minimum Humidity 65    
Precipitation  
Precipitation 0.00 in - - ()
Sea Level Pressure  
Sea Level Pressure 29.70 in    
Wind  
Wind Speed 14 mph (West)    
Max Wind Speed 24 mph    
Max Gust Speed 34 mph    
Visibility 6 miles    
Events Snow    
Averages and records for this station are not official NWS values.
T = Trace of Precipitation, MM = Missing Value Source: NWS Daily Summary

Daily Weather History Graph

Daily Weather History Graph

Search for Another Location

Airport or City:

Trip Planner

Search our weather history database for the weather conditions in past years. The results will help you decide how hot, cold, wet, or windy it might be!

Date:

Astronomy

Feb. 14, 2014 Rise Set
Actual Time 7:39 AM EST 6:15 PM EST
Civil Twilight 7:11 AM EST 6:44 PM EST
Nautical Twilight 6:38 AM EST 7:16 PM EST
Astronomical Twilight 6:06 AM EST 7:48 PM EST
Moon 6:19 PM EST (2/14) 7:05 AM EST (2/14)
Length of Visible Light 11h 32m
Length of Day
10h 35m
Full, 100% of the Moon is Illuminated
Feb 14
Full
Feb 14
Full
Feb 22
Last Quarter
Mar 1
New
Mar 8
First Quarter

Hourly Weather History & Observations

Time (EST) Temp. Windchill Dew Point Humidity Pressure Visibility Wind Dir Wind Speed Gust Speed Precip Events Conditions
12:17 AM 32.0 °F 22.1 °F 24.1 °F 73% 29.47 in 6.0 mi WSW 13.8 mph - N/A   Haze
12:53 AM 28.9 °F 14.8 °F 21.0 °F 72% 29.52 in 10.0 mi West 24.2 mph 32.2 mph N/A   Mostly Cloudy
1:10 AM 26.1 °F 11.6 °F 19.0 °F 75% 29.50 in 8.0 mi WNW 21.9 mph 34.5 mph N/A   Mostly Cloudy
1:53 AM 26.1 °F 11.6 °F 19.0 °F 75% 29.54 in 9.0 mi WNW 21.9 mph 31.1 mph N/A   Overcast
2:53 AM 25.0 °F 11.3 °F 18.0 °F 75% 29.57 in 8.0 mi West 18.4 mph - N/A   Overcast
3:53 AM 24.1 °F 10.1 °F 18.0 °F 77% 29.58 in 7.0 mi West 18.4 mph - N/A   Overcast
4:53 AM 24.1 °F 12.0 °F 18.0 °F 77% 29.60 in 7.0 mi West 13.8 mph - N/A   Overcast
5:53 AM 24.1 °F 11.5 °F 17.1 °F 75% 29.62 in 6.0 mi West 15.0 mph - N/A   Haze
6:53 AM 21.9 °F 9.8 °F 16.0 °F 78% 29.64 in 5.0 mi West 12.7 mph - N/A   Haze
7:53 AM 21.0 °F 9.3 °F 15.1 °F 78% 29.65 in 4.0 mi WSW 11.5 mph - N/A   Haze
8:53 AM 21.0 °F 8.1 °F 15.1 °F 78% 29.69 in 3.0 mi WSW 13.8 mph - N/A   Haze
9:06 AM 19.9 °F 6.7 °F 15.1 °F 81% 29.66 in 2.0 mi WSW 13.8 mph - N/A   Haze
9:15 AM 19.0 °F 5.6 °F 14.0 °F 81% 29.66 in 1.5 mi WSW 13.8 mph - 0.00 in Snow Light Snow
9:53 AM 19.0 °F 6.8 °F 14.0 °F 81% 29.70 in 2.0 mi West 11.5 mph - 0.00 in Snow Light Snow
10:02 AM 19.0 °F 7.5 °F 14.0 °F 81% 29.67 in 1.8 mi West 10.4 mph - 0.00 in   Haze
10:12 AM 19.0 °F 6.1 °F 14.0 °F 81% 29.68 in 2.0 mi WSW 12.7 mph - 0.00 in   Haze
10:30 AM 19.0 °F 6.8 °F 14.0 °F 81% 29.68 in 3.0 mi WSW 11.5 mph - 0.00 in   Haze
10:53 AM 19.9 °F 6.7 °F 14.0 °F 78% 29.72 in 3.0 mi WSW 13.8 mph - 0.00 in   Haze
11:53 AM 21.0 °F 9.3 °F 15.1 °F 78% 29.73 in 3.0 mi WSW 11.5 mph - N/A   Haze
12:01 PM 21.0 °F 9.3 °F 15.1 °F 78% 29.70 in 2.5 mi WSW 11.5 mph - N/A   Haze
12:17 PM 21.0 °F 8.6 °F 15.1 °F 78% 29.71 in 3.0 mi WSW 12.7 mph - N/A   Haze
12:53 PM 21.9 °F 9.8 °F 15.1 °F 75% 29.74 in 3.0 mi West 12.7 mph - N/A   Haze
1:53 PM 21.9 °F 11.0 °F 15.1 °F 75% 29.74 in 3.0 mi WSW 10.4 mph - N/A   Haze
2:53 PM 21.9 °F 10.4 °F 15.1 °F 75% 29.73 in 3.0 mi WNW 11.5 mph - N/A   Haze
3:53 PM 23.0 °F 12.4 °F 15.1 °F 72% 29.74 in 7.0 mi WNW 10.4 mph - N/A   Mostly Cloudy
4:53 PM 23.0 °F 13.1 °F 12.9 °F 65% 29.75 in 8.0 mi NW 9.2 mph - N/A   Overcast
5:53 PM 21.9 °F 9.8 °F 12.9 °F 68% 29.76 in 9.0 mi NNW 12.7 mph - N/A   Overcast
6:53 PM 21.9 °F 11.7 °F 15.1 °F 75% 29.80 in 7.0 mi NW 9.2 mph - N/A   Overcast
7:53 PM 21.0 °F 8.6 °F 12.9 °F 71% 29.83 in 10.0 mi NNW 12.7 mph - N/A   Overcast
8:11 PM 19.9 °F 7.9 °F 12.9 °F 74% 29.79 in 10.0 mi NW 11.5 mph - N/A   Mostly Cloudy
8:26 PM 19.9 °F 9.3 °F 14.0 °F 78% 29.80 in 10.0 mi NW 9.2 mph - N/A   Mostly Cloudy
8:53 PM 19.9 °F 8.6 °F 15.1 °F 81% 29.85 in 7.0 mi NW 10.4 mph - N/A   Overcast
9:16 PM 19.9 °F 8.6 °F 15.1 °F 81% 29.81 in 7.0 mi NW 10.4 mph - N/A   Overcast
9:53 PM 19.9 °F 10.1 °F 15.1 °F 81% 29.87 in 6.0 mi WNW 8.1 mph - N/A   Haze
10:19 PM 19.9 °F 10.1 °F 15.1 °F 81% 29.83 in 4.0 mi WNW 8.1 mph - N/A   Haze
10:53 PM 19.9 °F 9.3 °F 16.0 °F 85% 29.88 in 5.0 mi WNW 9.2 mph - N/A   Overcast
11:53 PM 19.9 °F 11.1 °F 16.0 °F 85% 29.87 in 6.0 mi NW 6.9 mph - 0.00 in   Mostly Cloudy